sat.trackr.live / text

‹ back to catalog

KSM1-B

NORAD 46914 · 2020-081K

PAYLOAD ACTIVE UNKNOWN

§ Identity

Operator
Country
LUXE
Launch date
2020-11-07
Launch site
SRILR
Launch vehicle
Mass (kg)
RCS (m²)

External: N2YO · Heavens-Above · Gunter

§ Orbital elements

Epoch: 2026-05-25T05:44:52.261728Z

Period
94.48 min
Inclination
36.9013°
Eccentricity
0.0004376
Mean motion
15.24157335 rev/d
Perigee alt
490.3 km
Apogee alt
496.3 km
Semi-major
6,871.5 km
B*
2.7071e-4
RAAN
209.6937°
Arg perigee
87.9641°
Mean anomaly
272.1608°
Rev number
30,868

§ Raw data

KSM1-B1 46914U 20081K   26145.23949377  .00006651  00000+0  27071-3 0  99942 46914  36.9013 209.6937 0004376  87.9641 272.1608 15.24157335308686

JSON: /api/v1/satellites/46914 · /tle

For live sub-satellite position, see the globe view (requires WebGL).

§ Visibility from observer

Set your observer location to see the next 7 days of passes ≥ 10°. The values pass through the URL so the page stays shareable.

No JS? Fill the form by hand. The geolocation button needs JavaScript.

§ Radio — SatNOGS DB

ModeDescriptionDownlinkUplink
FSK AX.100 Mode 5 Mode U 401.060 MHz

1 transmitter · refreshed weekly from db.satnogs.org